Weather History for KMVY - December, 2013

Change the Weather History Date:

Wednesday, December 11, 2013

  Actual Average Record
Temperature  
Mean Temperature 31 °F -  
Max Temperature 34 °F 44 °F 60 °F (1953)
Min Temperature 28 °F 29 °F 8 °F (1968)
Degree Days  
Heating Degree Days 34    
Moisture  
Dew Point 20 °F    
Average Humidity 61    
Maximum Humidity 75    
Minimum Humidity 50    
Precipitation  
Precipitation 0.00 in - - ()
Sea Level Pressure  
Sea Level Pressure 30.18 in    
Wind  
Wind Speed 10 mph (WNW)    
Max Wind Speed 16 mph    
Max Gust Speed 24 mph    
Visibility 10 miles    
Events      
Averages and records for this station are not official NWS values.
T = Trace of Precipitation, MM = Missing Value Source: NWS Daily Summary

Daily Weather History Graph

Daily Weather History Graph

Search for Another Location

Airport or City:

Trip Planner

Search our weather history database for the weather conditions in past years. The results will help you decide how hot, cold, wet, or windy it might be!

Date:

Astronomy

Dec. 11, 2013 Rise Set
Actual Time 6:58 AM EST 4:13 PM EST
Civil Twilight 6:27 AM EST 4:44 PM EST
Nautical Twilight 5:52 AM EST 5:19 PM EST
Astronomical Twilight 5:19 AM EST 5:52 PM EST
Moon 12:47 PM EST (12/11) 1:13 AM EST (12/11)
Length of Visible Light 10h 16m
Length of Day
9h 14m
Waxing Gibbous, 71% of the Moon is Illuminated
Dec 11
Waxing Gibbous
Dec 17
Full
Dec 25
Last Quarter
Jan 1
New
Jan 7
First Quarter

Hourly Weather History & Observations

Time (EST) Temp. Windchill Dew Point Humidity Pressure Visibility Wind Dir Wind Speed Gust Speed Precip Events Conditions
12:53 AM 28.9 °F 19.8 °F 19.9 °F 69% 30.06 in 10.0 mi WNW 10.4 mph - N/A   Clear
1:53 AM 28.0 °F 20.8 °F 21.0 °F 75% 30.09 in 10.0 mi WNW 6.9 mph - N/A   Clear
2:53 AM 30.0 °F 20.0 °F 19.0 °F 64% 30.11 in 10.0 mi WNW 12.7 mph 20.7 mph N/A   Clear
3:53 AM 28.9 °F 20.4 °F 18.0 °F 64% 30.12 in 10.0 mi West 9.2 mph 17.3 mph N/A   Clear
4:53 AM 28.9 °F 20.4 °F 17.1 °F 61% 30.17 in 10.0 mi WNW 9.2 mph 17.3 mph N/A   Clear
5:53 AM 28.9 °F 19.8 °F 14.0 °F 54% 30.19 in 10.0 mi WNW 10.4 mph 19.6 mph N/A   Clear
6:53 AM 28.0 °F 20.0 °F 17.1 °F 63% 30.22 in 10.0 mi West 8.1 mph 16.1 mph N/A   Clear
7:53 AM 30.0 °F 21.7 °F 15.1 °F 54% 30.25 in 10.0 mi WNW 9.2 mph - N/A   Clear
8:53 AM 32.0 °F 23.0 °F 18.0 °F 56% 30.26 in 10.0 mi WNW 11.5 mph 18.4 mph N/A   Clear
9:53 AM 32.0 °F 23.0 °F 19.0 °F 59% 30.27 in 10.0 mi WNW 11.5 mph 18.4 mph N/A   Clear
10:53 AM 33.1 °F 25.5 °F 19.0 °F 56% 30.26 in 10.0 mi West 9.2 mph - N/A   Clear
11:53 AM 33.1 °F 23.4 °F 19.0 °F 56% 30.22 in 10.0 mi West 13.8 mph 18.4 mph N/A   Clear
12:53 PM 33.1 °F 23.0 °F 21.0 °F 61% 30.19 in 10.0 mi West 15.0 mph 21.9 mph N/A   Scattered Clouds
1:53 PM 33.1 °F 23.0 °F 21.9 °F 64% 30.19 in 10.0 mi West 15.0 mph 23.0 mph N/A   Mostly Cloudy
2:53 PM 34.0 °F 26.0 °F 23.0 °F 64% 30.17 in 10.0 mi West 10.4 mph 20.7 mph N/A   Overcast
3:53 PM 34.0 °F 27.2 °F 23.0 °F 64% 30.17 in 10.0 mi West 8.1 mph 19.6 mph N/A   Overcast
4:53 PM 34.0 °F 25.5 °F 24.1 °F 67% 30.17 in 10.0 mi West 11.5 mph 16.1 mph N/A   Mostly Cloudy
5:53 PM 34.0 °F 26.6 °F 21.0 °F 59% 30.18 in 10.0 mi West 9.2 mph 20.7 mph N/A   Scattered Clouds
6:53 PM 34.0 °F 26.0 °F 21.0 °F 59% 30.18 in 10.0 mi WNW 10.4 mph 16.1 mph N/A   Overcast
7:53 PM 33.1 °F 26.1 °F 23.0 °F 66% 30.18 in 10.0 mi WNW 8.1 mph - N/A   Overcast
8:53 PM 32.0 °F 25.6 °F 21.0 °F 64% 30.17 in 10.0 mi WNW 6.9 mph - N/A   Overcast
9:53 PM 33.1 °F 24.9 °F 19.9 °F 59% 30.17 in 10.0 mi WNW 10.4 mph - N/A   Scattered Clouds
10:53 PM 33.1 °F 23.4 °F 17.1 °F 52% 30.17 in 10.0 mi WNW 13.8 mph 23.0 mph N/A   Mostly Cloudy
11:53 PM 33.1 °F 22.6 °F 16.0 °F 50% 30.16 in 10.0 mi WNW 16.1 mph 24.2 mph N/A   Mostly Cloudy